FW8580 Weather Reports


time (UTC)temp
C
wind
direction
speed
KPH
gust
KPH
rain 1hr
cm
rain 24hr
cm
rain mn
cm
humidity
%
barometer
mb
20260510161503 21 245 0.0 1.6 0.00 0.00 0.00 53 1017.5
20260510160000 19 20 0.0 12.9 0.00 0.00 0.00 59 1017.5
20260510154500 19 200 0.0 12.9 0.00 0.00 0.00 59 1017.6
20260510153006 18 313 1.6 6.4 0.00 0.00 0.00 59 1017.6
20260510151501 18 4 1.6 14.5 0.00 0.00 0.00 60 1017.5
20260510150003 17 73 6.4 17.7 0.00 0.00 0.00 59 1017.5
20260510143002 17 257 4.8 16.1 0.00 0.00 0.00 62 1017.4
20260510140016 16 244 0.0 6.4 0.00 0.00 0.00 65 1017.4
20260510133008 15 253 1.6 8.0 0.00 0.00 0.00 66 1017.3
20260510131458 15 193 0.0 6.4 0.00 0.00 0.00 67 1017.2
20260510130002 15 213 1.6 8.0 0.00 0.00 0.00 68 1017.0
20260510124503 15 234 1.6 9.7 0.00 0.00 0.00 68 1016.8
20260510122959 14 322 3.2 12.9 0.00 0.00 0.00 70 1016.6
20260510121500 13 220 0.0 4.8 0.00 0.00 0.00 71 1016.5
20260510120008 13 108 0.0 6.4 0.00 0.00 0.00 73 1016.4
20260510114500 12 175 0.0 6.4 0.00 0.00 0.00 74 1016.2
20260510113010 12 232 0.0 1.6 0.00 0.00 0.00 75 1016.1
20260510111459 12 232 0.0 1.6 0.00 0.00 0.00 75 1015.8
20260510110003 12 147 0.0 3.2 0.00 0.00 0.00 73 1015.6
20260510104502 13 248 0.0 11.3 0.00 0.00 0.00 70 1015.3
20260510095959 13 8 1.6 6.4 0.00 0.00 0.00 66 1014.8
20260510094502 12 215 0.0 6.4 0.00 0.00 0.00 67 1014.9
20260510093000 13 205 0.0 12.9 0.00 0.00 0.00 64 1014.7
20260510091458 13 323 1.6 9.7 0.00 0.00 0.00 66 1014.6
20260510090016 12 193 0.0 8.0 0.00 0.00 0.00 68 1014.2
20260510084500 12 226 0.0 8.0 0.00 0.00 0.00 73 1014.1
20260510083005 12 32 0.0 3.2 0.00 0.00 0.00 78 1013.9
20260510081458 12 78 0.0 6.4 0.00 0.00 0.00 79 1013.9
20260510080001 12 19 0.0 3.2 0.00 0.00 0.00 80 1013.8
20260510074500 12 105 0.0 3.2 0.00 0.00 0.00 79 1013.4
20260510064501 12 89 0.0 1.6 0.00 0.00 0.00 76 1013.5
20260510063004 12 219 0.0 1.6 0.00 0.00 0.00 76 1013.6
20260510060006 12 202 0.0 4.8 0.00 0.00 0.00 75 1013.8
20260510054458 12 357 0.0 1.6 0.00 0.00 0.00 74 1013.8
20260510050002 13 223 0.0 1.6 0.00 0.00 0.00 72 1014.0
20260510044500 13 101 0.0 0.0 0.00 0.00 0.00 72 1014.1
20260510043001 13 161 0.0 1.6 0.00 0.00 0.00 72 1014.0
20260510040001 13 210 0.0 1.6 0.00 0.00 0.00 71 1014.0
20260510033112 13 219 0.0 1.6 0.00 0.00 0.00 69 1014.0
20260510031459 13 304 0.0 3.2 0.00 0.00 0.00 67 1013.9
20260510030007 13 217 0.0 1.6 0.00 0.00 0.00 68 1013.8
20260510023000 14 228 0.0 1.6 0.00 0.00 0.00 67 1013.5
20260510021500 14 53 0.0 1.6 0.00 0.00 0.00 66 1013.4
20260510020000 14 227 0.0 1.6 0.00 0.00 0.00 66 1013.3
20260510014459 14 255 0.0 1.6 0.00 0.00 0.00 65 1013.0
20260510013000 14 219 0.0 0.0 0.00 0.00 0.00 65 1012.7
20260510011459 14 219 0.0 3.2 0.00 0.00 0.00 64 1012.4
20260510010002 15 16 0.0 3.2 0.00 0.00 0.00 62 1012.4
20260510004503 15 151 0.0 0.0 0.00 0.00 0.00 60 1012.3
20260510003010 16 1 0.0 1.6 0.00 0.00 0.00 58 1012.2
20260509234500 17 284 1.6 9.7 0.00 0.00 0.00 52 1011.6
20260509233003 18 328 0.0 8.0 0.00 0.00 0.00 52 1011.5
20260509231501 18 202 1.6 9.7 0.00 0.00 0.00 53 1011.4
20260509224500 19 316 0.0 9.7 0.00 0.00 0.00 49 1011.1
20260509223000 20 318 0.0 12.9 0.00 0.00 0.00 49 1011.3
20260509221458 21 330 1.6 8.0 0.00 0.00 0.00 47 1011.3
20260509220003 21 340 1.6 4.8 0.00 0.00 0.00 48 1011.2
20260509214459 20 32 0.0 11.3 0.00 0.00 0.00 49 1011.1
20260509213000 22 59 0.0 9.7 0.00 0.00 0.00 46 1010.9
20260509211459 22 14 0.0 3.2 0.00 0.00 0.00 45 1010.7
20260509210001 21 183 0.0 3.2 0.00 0.00 0.00 44 1010.6
20260509204458 21 8 0.0 3.2 0.00 0.00 0.00 45 1010.6
20260509203002 21 108 0.0 3.2 0.00 0.00 0.00 44 1010.5
20260509201500 21 200 0.0 8.0 0.00 0.00 0.00 46 1010.3
20260509195958 20 223 0.0 6.4 0.00 0.00 0.00 50 1010.3
20260509194459 20 127 0.0 3.2 0.00 0.00 0.00 49 1010.4
20260509193000 21 243 0.0 3.2 0.00 0.00 0.00 51 1010.3
20260509191500 21 316 0.0 1.6 0.00 0.00 0.00 50 1010.4
20260509185958 21 13 0.0 3.2 0.00 0.00 0.00 50 1010.5
20260509184500 21 319 1.6 6.4 0.00 0.00 0.00 48 1010.5
20260509182959 19 20 0.0 8.0 0.00 0.00 0.00 53 1010.8
20260509181459 20 229 0.0 3.2 0.00 0.00 0.00 50 1011.0
20260509180002 19 320 0.0 3.2 0.00 0.00 0.00 56 1011.0
20260509174500 17 158 0.0 1.6 0.00 0.00 0.00 61 1011.4
20260509173003 17 260 0.0 3.2 0.00 0.00 0.00 58 1011.3
20260509171459 17 5 0.0 11.3 0.00 0.00 0.00 63 1011.4
20260509164503 17 241 0.0 3.2 0.00 0.00 0.00 69 1011.5
20260509163000 17 241 0.0 3.2 0.00 0.00 0.00 69 1011.5